This is the latest recevied weather packets stored in our database for station/object WZ9ZZZ-1. If no packets are shown the sender has not sent any weather packets the latest 10 day(s).
| Time | Temp. | Humidity | Pressure | Rain* | Wind** | Luminosity | Snow |
|---|---|---|---|---|---|---|---|
| 1777473178 | 26.67° C | 84% | 1016.3 hPa | 0 mm | - | 235 W/m² | - |
| 1777472875 | 26.67° C | 84% | 1016.1 hPa | 0 mm | - | 147 W/m² | - |
| 1777472571 | 27.22° C | 83% | 1016.1 hPa | 0 mm | - | 108 W/m² | - |
| 1777472268 | 26.67° C | 84% | 1015.9 hPa | 0 mm | - | 242 W/m² | - |
| 1777471964 | 27.22° C | 84% | 1016 hPa | 0 mm | - | 222 W/m² | - |
| 1777471661 | 26.67° C | 84% | 1015.6 hPa | 0 mm | - | 271 W/m² | - |
| 1777471358 | 26.67° C | 85% | 1015.7 hPa | 0 mm | - | 189 W/m² | - |
| 1777471054 | 26.67° C | 85% | 1015.9 hPa | 0 mm | - | 237 W/m² | - |
| 1777470751 | 26.67° C | 86% | 1015.8 hPa | 0 mm | - | 146 W/m² | - |
| 1777470447 | 26.11° C | 86% | 1015.8 hPa | 0 mm | - | 261 W/m² | - |
| 1777470144 | 26.11° C | 87% | 1015.8 hPa | 0 mm | - | 233 W/m² | - |
| 1777469840 | 26.11° C | 88% | 1015.8 hPa | 0 mm | - | 249 W/m² | - |
| 1777469536 | 25.56° C | 89% | 1015.9 hPa | 0 mm | - | 196 W/m² | - |
| 1777469231 | 25.56° C | 90% | 1016.2 hPa | 0 mm | - | 152 W/m² | - |
| 1777468931 | 25.56° C | 90% | 1016.3 hPa | 0 mm | - | 113 W/m² | - |
| 1777468628 | 25.56° C | 91% | 1016.2 hPa | 0 mm | - | 106 W/m² | - |
| 1777468325 | 25.56° C | 91% | 1016.1 hPa | 0 mm | - | 81 W/m² | - |
| 1777468020 | 25.56° C | 91% | 1016.1 hPa | 0 mm | - | 86 W/m² | - |
| 1777467716 | 25° C | 92% | 1016.1 hPa | 0 mm | - | 83 W/m² | - |
| 1777467412 | 25° C | 92% | 1016.1 hPa | 0 mm | - | 73 W/m² | - |
| 1777467107 | 25° C | 92% | 1015.8 hPa | 0 mm | - | 59 W/m² | - |
| 1777466805 | 25° C | 92% | 1016 hPa | 0 mm | - | 48 W/m² | - |
| 1777466503 | 25° C | 92% | 1016.1 hPa | 0 mm | - | 55 W/m² | - |
| 1777466199 | 25° C | 93% | 1016 hPa | 0 mm | - | 45 W/m² | - |
| 1777465895 | 25° C | 93% | 1015.9 hPa | 0 mm | - | 31 W/m² | - |
* Rain latest hour (hover to see other rain measurements)
** Current wind speed in m/s (hover to see current wind gust speed)